Location: Fort Wayne
(41.1310°N, 85.1290°W)
Time: 07:24:50
(UTC-05:00)

Tiros 1 despin weight - Visible Passes

Search period start: 26 January 2015 00:00
Search period end: 05 February 2015 00:00
Orbit: 599 x 649 km, 48.2° (Epoch: 25 January)

Date Brightness Start Highest point End Pass type
(mag) Time Alt. Az. Time Alt. Az. Time Alt. Az.
26 Jan ? 18:39:31 10° S 18:42:54 20° SE 18:45:40 13° E visible
26 Jan ? 20:19:28 10° WSW 20:22:52 47° WSW 20:22:52 47° WSW visible
27 Jan ? 18:56:52 10° SSW 19:01:13 38° SE 19:03:46 21° E visible
27 Jan ? 20:38:11 10° WSW 20:40:59 34° W 20:40:59 34° W visible
28 Jan ? 19:14:58 10° SW 19:19:40 70° SSE 19:21:49 32° ENE visible
28 Jan ? 20:57:07 10° W 20:59:02 22° WNW 20:59:02 22° WNW visible
29 Jan ? 19:33:31 10° WSW 19:38:15 71° NNW 19:39:49 41° NE visible
29 Jan ? 21:16:08 10° WNW 21:17:00 15° WNW 21:17:00 15° WNW visible
30 Jan ? 19:52:22 10° W 19:56:58 48° NNW 19:57:44 43° NNE visible
31 Jan ? 18:28:54 10° WSW 18:33:39 88° NNW 18:38:24 10° ENE visible
31 Jan ? 20:11:21 10° WNW 20:15:37 38° NNW 20:15:37 38° NNW visible
01 Feb ? 18:47:38 10° W 18:52:17 57° NNW 18:56:16 14° NE visible
01 Feb ? 20:30:19 10° WNW 20:33:27 30° NNW 20:33:27 30° NNW visible
02 Feb ? 19:06:34 10° W 19:11:03 41° NNW 19:14:05 19° NE visible
02 Feb ? 20:49:09 10° WNW 20:51:16 23° NW 20:51:16 23° NW visible
03 Feb ? 19:25:32 10° WNW 19:29:54 35° N 19:31:54 25° NE visible
03 Feb ? 21:07:50 10° WNW 21:09:05 17° NW 21:09:05 17° NW visible
04 Feb ? 19:44:25 10° WNW 19:48:47 35° N 19:49:42 32° NNE visible
04 Feb ? 21:26:24 10° WNW 21:26:54 13° WNW 21:26:54 13° WNW visible
